PROFILE

 METAR AND TAF INFORMATION
ADDS - METARS form results

(0229 UTC 20 February 2020)
http://aviationweather.gov/metar/data/
 
TNCM 200200Z 08011KT 050V110 9999 SCT018 26/20 Q1019 RERA RMK HZ ALQDS
TNCM 192339Z 2000/2024 08013KT P6SM -SHRA SCT018 BKN040 FM200300 07010KT P6SM VCSH SCT018 SCT035 FM201430 09016G20KT P6SM SCT020 

 AIRPORT MAP

 RUNWAY INFORMATION
Runway 10 Runway length 7546 ft Runway width 150 ft
Runway elevation 13 ft Runway displaced threshold 0 ft Runway heading 96
Runway 28 Runway length 7546 ft Runway width 150 ft
Runway elevation 9 ft Runway displaced threshold 328 ft Runway heading 276

 AIRPORT FREQUENCIES
Type APP Name JULIANA AP Frequency 128.95 MHZ
Type TWR Name JULIANA TW Frequency 118.7 MHZ

 AIRPORT NEAR NAVIGATION AIDS
Type NDB Name St.mMarten Frequency 284 KHZ
Type VOR-DME Name St.mMarten Frequency 113000 KHZ